Miscellaneous Local Product
Issued by NWS Hastings, NE

Home | Current Version | Previous Version | Graphics & Text | Print | Product List | Glossary On
Versions: 1 2 3 4 5 6 7 8 9 10 11 12 13 14 15 16 17 18 19 20 21 22 23 24 25 26 27 28 29 30 31 32 33 34 35 36 37 38 39 40 41 42 43 44 45 46 47 48 49 50
906
AXUS43 KGID 230302
MISGRI

GID CWA HOURLY WEATHER ROUNDUP
NATIONAL WEATHER SERVICE HASTINGS NE
1000 PM CDT FRI JUL 22 2016

NOTE: "FAIR" INDICATES FEW OR NO CLOUDS BELOW 12,000 FEET WITH NO
SIGNIFICANT WEATHER AND/OR OBSTRUCTIONS TO VISIBILITY.

...SOUTH CENTRAL NEBRASKA...

CITY           SKY/WX    TMP DP  RH WIND       PRES   REMARKS
GRAND ISLAND   PTCLDY    81  72  74 SE3       29.92R
HASTINGS       CLOUDY    81  71  71 CALM      29.92S
KEARNEY        MOCLDY    79  72  78 E7        29.92S
ORD            CLOUDY    83  78  85 CALM      29.92S HX  93
YORK           CLOUDY    77  73  88 CALM      29.92R
AURORA         CLOUDY    79  77  93 E6        29.92R
LEXINGTON      CLOUDY    79  75  86 CALM      29.93S
HOLDREGE       CLOUDY    80  72  76 SE5       29.92S
HEBRON         CLEAR     78  71  77 CALM      29.90S

...NEBRASKA PANHANDLE...

CITY           SKY/WX    TMP DP  RH WIND       PRES   REMARKS
CHADRON        CLOUDY    79  54  41 S14       29.92F
ALLIANCE       CLOUDY    68  64  87 S9        30.00F
SCOTTSBLUFF    CLOUDY    72  60  66 SE15      30.02R
SIDNEY         CLOUDY    67  61  81 E22G35    30.08R

...WESTERN AND NORTH CENTRAL NEBRASKA...

CITY           SKY/WX    TMP DP  RH WIND       PRES   REMARKS
VALENTINE      CLOUDY    86  73  65 E15       29.94F HX  93
AINSWORTH      CLOUDY    83  77  82 E10       29.98R HX  92
ONEILL         CLOUDY    84  76  76 E8        29.94F HX  93
BROKEN BOW     CLOUDY    79  75  87 CALM      29.95R
IMPERIAL       CLOUDY    81  67  62 E14       29.94F
NORTH PLATTE   CLOUDY    79  73  82 CALM      29.96R
MCCOOK         CLOUDY    82  72  71 E8        29.91S

...EASTERN NEBRASKA...

CITY           SKY/WX    TMP DP  RH WIND       PRES   REMARKS
NORFOLK        PTCLDY    82  76  81 CALM      29.93R
TEKAMAH        CLEAR     84  80  88 E6        29.89S HX  97
COLUMBUS       CLOUDY    79  68  69 NE5       29.91S
ALBION         MOCLDY    82  75  78 E6        29.93R
OMAHA EPPLEY   PTCLDY    87  80  79 SE12      29.90R HX 103
OFFUTT AFB     CLEAR     84  81  90 E8        29.89S HX  99
MILLARD        CLEAR     87  82  85 SE8       29.89R HX 105
LINCOLN        CLEAR     82  71  69 SE7       29.90R
NEBRASKA CITY  PTCLDY    83  83  99 SW7       29.94R THUNDER HX 101
BEATRICE       PTCLDY    79  71  76 E3        29.92R
FALLS CITY     PTCLDY    86  80  82 S5        29.93R HX 101

...NORTHERN KANSAS...

CITY           SKY/WX    TMP DP  RH WIND       PRES   REMARKS
GOODLAND       CLEAR     84  56  38 S13       29.95F
HILL CITY      PTCLDY    81  68  64 E5        29.89F
NORTON         CLEAR     82  61  47 E5        29.90S
SMITH CENTER   CLEAR     81  66  61 E8        29.89S
BELOIT         CLEAR     82  70  65 E6        29.86S
HAYS           MOCLDY    90  61  37 S14       29.89F
RUSSELL        CLOUDY    89  62  40 SE12      29.88F
CONCORDIA      PTCLDY    80  69  69 SE9       29.88S
SALINA         PTCLDY    91  69  48 S13       29.88R HX  96
TOPEKA         PTCLDY    88  72  58 SE12      29.92R HX  94



USA.gov is the U.S. government's official web portal to all federal, state and local government web resources and services.